UAL154 PTSA-PTPN

Flight info

Callsign UAL154
Flight time 0h 53m
Altitude 36000
Route UKS A222 AXTEN
Aircraft B38M/M-SDE1FGHILORVWXY/HB1

Departure

Time 2026-04-22 22:00
Airport Kosrae International Airport (PTSA)

Arrival

Time 2026-04-22 22:54
Airport Pohnpei International Airport (PTPN)
Time Latitude Longitude Altitude Speed Heading
2026-04-22 21:37 5.35337 162.95593 30 ft 0 kts 236°
2026-04-22 21:50 5.35343 162.95601 30 ft 3 kts 236°
2026-04-22 21:50 5.35351 162.95614 30 ft 0 kts 236°
2026-04-22 21:56 5.35352 162.95611 28 ft 0 kts 262°
2026-04-22 21:56 5.35354 162.95609 30 ft 0 kts 303°
2026-04-22 21:56 5.35365 162.95604 30 ft 5 kts 333°
2026-04-22 21:56 5.35384 162.95583 30 ft 4 kts 299°
2026-04-22 21:57 5.35408 162.95555 30 ft 7 kts 317°
2026-04-22 21:57 5.35445 162.95517 31 ft 9 kts 295°
2026-04-22 21:57 5.35420 162.95436 31 ft 19 kts 234°
2026-04-22 21:57 5.35331 162.95311 33 ft 24 kts 228°
2026-04-22 21:58 5.35241 162.95213 33 ft 9 kts 284°
2026-04-22 21:58 5.35251 162.95202 33 ft 0 kts 344°
2026-04-22 21:58 5.35261 162.95209 33 ft 5 kts 37°
2026-04-22 21:58 5.35277 162.95227 33 ft 0 kts 54°
2026-04-22 22:00 5.35284 162.95237 23 ft 8 kts 54°
2026-04-22 22:00 5.35498 162.95548 31 ft 99 kts 56°
2026-04-22 22:00 5.36031 162.96344 74 ft 169 kts 57°
2026-04-22 22:00 5.36782 162.97365 711 ft 193 kts 43°
2026-04-22 22:01 5.37980 162.98013 1638 ft 204 kts 11°
2026-04-22 22:01 5.39425 162.97839 2395 ft 225 kts 339°
2026-04-22 22:01 5.40692 162.96817 3162 ft 239 kts 302°
2026-04-22 22:01 5.41242 162.95222 4202 ft 254 kts 284°
2026-04-22 22:02 5.41772 162.93470 4953 ft 272 kts 292°
2026-04-22 22:02 5.42436 162.91645 5829 ft 282 kts 291°
2026-04-22 22:02 5.43089 162.89781 6850 ft 286 kts 290°
2026-04-22 22:02 5.43745 162.87872 7793 ft 291 kts 290°
2026-04-22 22:03 5.44402 162.85937 8794 ft 295 kts 290°
2026-04-22 22:03 5.45063 162.83973 9753 ft 299 kts 289°
2026-04-22 22:03 5.45735 162.81966 10493 ft 310 kts 289°
2026-04-22 22:03 5.46443 162.79852 10985 ft 329 kts 289°
2026-04-22 22:04 5.47185 162.77629 11576 ft 341 kts 289°
2026-04-22 22:04 5.47943 162.75360 12372 ft 345 kts 289°
2026-04-22 22:04 5.48710 162.73061 13205 ft 348 kts 289°
2026-04-22 22:04 5.49484 162.70743 13950 ft 353 kts 289°
2026-04-22 22:05 5.50268 162.68392 14618 ft 357 kts 289°
2026-04-22 22:05 5.51061 162.66019 15295 ft 361 kts 289°
2026-04-22 22:05 5.51862 162.63617 15970 ft 364 kts 289°
2026-04-22 22:05 5.52669 162.61196 16611 ft 368 kts 289°
2026-04-22 22:06 5.53485 162.58747 17254 ft 371 kts 289°
2026-04-22 22:06 5.54308 162.56281 17911 ft 374 kts 289°
2026-04-22 22:06 5.55138 162.53790 18451 ft 378 kts 289°
2026-04-22 22:06 5.55977 162.51276 18985 ft 382 kts 289°
2026-04-22 22:07 5.56822 162.48740 19525 ft 384 kts 289°
2026-04-22 22:07 5.57672 162.46189 20038 ft 387 kts 289°
2026-04-22 22:07 5.58529 162.43616 20549 ft 390 kts 289°
2026-04-22 22:07 5.59382 162.41057 21046 ft 393 kts 289°
2026-04-22 22:08 5.60252 162.38443 21540 ft 396 kts 289°
2026-04-22 22:08 5.61140 162.35777 22040 ft 399 kts 288°
2026-04-22 22:08 5.62011 162.33161 22524 ft 402 kts 288°
2026-04-22 22:08 5.62901 162.30489 23006 ft 405 kts 288°
2026-04-22 22:09 5.63796 162.27799 23467 ft 408 kts 288°
2026-04-22 22:09 5.64699 162.25086 23869 ft 411 kts 288°
2026-04-22 22:09 5.65607 162.22357 24253 ft 413 kts 288°
2026-04-22 22:09 5.66520 162.19613 24653 ft 416 kts 288°
2026-04-22 22:10 5.67437 162.16857 25039 ft 418 kts 288°
2026-04-22 22:10 5.68359 162.14083 25414 ft 420 kts 288°
2026-04-22 22:10 5.69287 162.11292 25792 ft 423 kts 288°
2026-04-22 22:10 5.70221 162.08484 26147 ft 426 kts 288°
2026-04-22 22:11 5.71160 162.05658 26530 ft 428 kts 288°
2026-04-22 22:11 5.72106 162.02812 26896 ft 431 kts 288°
2026-04-22 22:11 5.73057 161.99950 27260 ft 434 kts 288°
2026-04-22 22:11 5.74013 161.97071 27622 ft 436 kts 288°
2026-04-22 22:12 5.74977 161.94171 27896 ft 440 kts 288°
2026-04-22 22:12 5.75954 161.91229 27957 ft 448 kts 288°
2026-04-22 22:12 5.76946 161.88240 27922 ft 452 kts 288°
2026-04-22 22:12 5.77940 161.85245 27936 ft 452 kts 288°
2026-04-22 22:13 5.78935 161.82249 27934 ft 452 kts 288°
2026-04-22 22:13 5.79929 161.79252 27938 ft 452 kts 288°
2026-04-22 22:13 5.80924 161.76255 27939 ft 452 kts 288°
2026-04-22 22:13 5.81918 161.73259 27938 ft 452 kts 288°
2026-04-22 22:14 5.82910 161.70265 27935 ft 452 kts 288°
2026-04-22 22:14 5.83905 161.67266 27936 ft 452 kts 288°
2026-04-22 22:14 5.84899 161.64267 27936 ft 452 kts 288°
2026-04-22 22:14 5.85877 161.61315 27936 ft 452 kts 288°
2026-04-22 22:15 5.86872 161.58315 27939 ft 452 kts 288°
2026-04-22 22:15 5.87864 161.55320 27938 ft 452 kts 288°
2026-04-22 22:15 5.88856 161.52323 27937 ft 452 kts 288°
2026-04-22 22:15 5.89850 161.49323 27940 ft 453 kts 288°
2026-04-22 22:16 5.90844 161.46322 27935 ft 453 kts 288°
2026-04-22 22:16 5.91836 161.43324 27935 ft 453 kts 288°
2026-04-22 22:16 5.92829 161.40324 27936 ft 453 kts 288°
2026-04-22 22:16 5.93823 161.37322 27936 ft 453 kts 288°
2026-04-22 22:17 5.94815 161.34322 27939 ft 453 kts 288°
2026-04-22 22:17 5.95807 161.31324 27939 ft 452 kts 288°
2026-04-22 22:17 5.96799 161.28324 27938 ft 453 kts 288°
2026-04-22 22:17 5.97793 161.25319 27937 ft 456 kts 288°
2026-04-22 22:18 5.98802 161.22267 27932 ft 465 kts 288°
2026-04-22 22:18 5.99829 161.19160 27931 ft 472 kts 288°
2026-04-22 22:18 6.00871 161.16006 27929 ft 480 kts 288°
2026-04-22 22:18 6.01926 161.12812 27931 ft 485 kts 288°
2026-04-22 22:19 6.02995 161.09578 27934 ft 490 kts 288°
2026-04-22 22:19 6.04070 161.06320 27934 ft 491 kts 288°
2026-04-22 22:19 6.05145 161.03067 27935 ft 491 kts 288°
2026-04-22 22:19 6.06221 160.99806 27939 ft 491 kts 288°
2026-04-22 22:20 6.07295 160.96550 27937 ft 491 kts 288°
2026-04-22 22:20 6.08370 160.93294 27939 ft 491 kts 288°
2026-04-22 22:20 6.09445 160.90035 27939 ft 491 kts 288°
2026-04-22 22:20 6.10519 160.86779 27938 ft 491 kts 288°
2026-04-22 22:21 6.11591 160.83527 27939 ft 490 kts 288°
2026-04-22 22:21 6.12662 160.80278 27939 ft 489 kts 288°
2026-04-22 22:21 6.13731 160.77035 27938 ft 489 kts 288°
2026-04-22 22:21 6.14786 160.73832 27938 ft 489 kts 288°
2026-04-22 22:22 6.15855 160.70588 27939 ft 489 kts 288°
2026-04-22 22:22 6.16936 160.67304 27938 ft 489 kts 288°
2026-04-22 22:22 6.17991 160.64103 27935 ft 489 kts 288°
2026-04-22 22:22 6.19058 160.60861 27936 ft 489 kts 288°
2026-04-22 22:23 6.20126 160.57617 27940 ft 489 kts 288°
2026-04-22 22:23 6.21195 160.54368 27938 ft 489 kts 288°
2026-04-22 22:23 6.22261 160.51127 27939 ft 489 kts 288°
2026-04-22 22:23 6.23327 160.47885 27938 ft 489 kts 288°
2026-04-22 22:24 6.24397 160.44633 27939 ft 489 kts 288°
2026-04-22 22:24 6.25463 160.41391 27936 ft 489 kts 288°
2026-04-22 22:24 6.26530 160.38144 27938 ft 489 kts 288°
2026-04-22 22:24 6.27595 160.34904 27937 ft 489 kts 288°
2026-04-22 22:25 6.28661 160.31660 27936 ft 488 kts 288°
2026-04-22 22:25 6.29726 160.28417 27935 ft 489 kts 288°
2026-04-22 22:25 6.30790 160.25176 27938 ft 489 kts 288°
2026-04-22 22:25 6.31856 160.21929 27937 ft 489 kts 288°
2026-04-22 22:26 6.32922 160.18684 27936 ft 489 kts 288°
2026-04-22 22:26 6.33985 160.15442 27936 ft 488 kts 288°
2026-04-22 22:26 6.35045 160.12213 27936 ft 486 kts 288°
2026-04-22 22:26 6.36105 160.08982 27934 ft 487 kts 288°
2026-04-22 22:27 6.37162 160.05757 27935 ft 487 kts 288°
2026-04-22 22:27 6.38227 160.02510 27937 ft 488 kts 288°
2026-04-22 22:27 6.39288 159.99275 27935 ft 487 kts 288°
2026-04-22 22:27 6.40333 159.96085 27937 ft 487 kts 288°
2026-04-22 22:28 6.41393 159.92851 27936 ft 487 kts 288°
2026-04-22 22:28 6.42449 159.89625 27936 ft 487 kts 288°
2026-04-22 22:28 6.43510 159.86387 27934 ft 487 kts 288°
2026-04-22 22:28 6.44571 159.83146 27933 ft 488 kts 288°
2026-04-22 22:29 6.45633 159.79901 27935 ft 488 kts 288°
2026-04-22 22:29 6.46694 159.76662 27934 ft 488 kts 288°
2026-04-22 22:29 6.47754 159.73419 27932 ft 488 kts 288°
2026-04-22 22:29 6.48813 159.70182 27933 ft 488 kts 288°
2026-04-22 22:30 6.49873 159.66940 27932 ft 488 kts 288°
2026-04-22 22:30 6.50934 159.63696 27933 ft 489 kts 288°
2026-04-22 22:30 6.51995 159.60447 27933 ft 488 kts 288°
2026-04-22 22:30 6.53056 159.57204 27934 ft 488 kts 288°
2026-04-22 22:31 6.54113 159.53965 27933 ft 488 kts 288°
2026-04-22 22:31 6.55172 159.50724 27933 ft 488 kts 288°
2026-04-22 22:31 6.56228 159.47490 27932 ft 487 kts 287°
2026-04-22 22:31 6.57284 159.44256 27954 ft 486 kts 287°
2026-04-22 22:32 6.58338 159.41026 27919 ft 486 kts 287°
2026-04-22 22:32 6.59392 159.37799 27917 ft 485 kts 288°
2026-04-22 22:32 6.60430 159.34615 27934 ft 486 kts 287°
2026-04-22 22:32 6.61484 159.31385 27933 ft 486 kts 287°
2026-04-22 22:33 6.62536 159.28155 27928 ft 486 kts 287°
2026-04-22 22:33 6.63588 159.24933 26857 ft 488 kts 287°
2026-04-22 22:33 6.64653 159.21662 25746 ft 494 kts 287°
2026-04-22 22:33 6.65725 159.18375 24833 ft 494 kts 287°
2026-04-22 22:34 6.66789 159.15108 24195 ft 488 kts 288°
2026-04-22 22:34 6.67838 159.11890 23557 ft 482 kts 288°
2026-04-22 22:34 6.68876 159.08701 22810 ft 477 kts 288°
2026-04-22 22:34 6.69904 159.05545 22087 ft 472 kts 288°
2026-04-22 22:35 6.70919 159.02425 21386 ft 467 kts 288°
2026-04-22 22:35 6.71925 158.99333 20698 ft 463 kts 288°
2026-04-22 22:35 6.72921 158.96272 20040 ft 458 kts 288°
2026-04-22 22:35 6.73907 158.93238 19403 ft 454 kts 288°
2026-04-22 22:36 6.74883 158.90235 18797 ft 450 kts 288°
2026-04-22 22:36 6.75851 158.87260 18240 ft 444 kts 288°
2026-04-22 22:36 6.76804 158.84327 17699 ft 437 kts 288°
2026-04-22 22:36 6.77740 158.81445 17186 ft 430 kts 288°
2026-04-22 22:37 6.78664 158.78602 16688 ft 424 kts 288°
2026-04-22 22:37 6.79574 158.75798 16184 ft 419 kts 287°
2026-04-22 22:37 6.80475 158.73027 15712 ft 414 kts 288°
2026-04-22 22:37 6.81362 158.70292 15263 ft 409 kts 287°
2026-04-22 22:38 6.82164 158.67570 14843 ft 403 kts 283°
2026-04-22 22:38 6.82587 158.65762 14600 ft 399 kts 283°
2026-04-22 22:38 6.83229 158.63071 14264 ft 392 kts 283°
2026-04-22 22:38 6.83868 158.60435 14035 ft 383 kts 283°
2026-04-22 22:39 6.84493 158.57865 13843 ft 374 kts 283°
2026-04-22 22:39 6.85106 158.55357 13646 ft 364 kts 283°
2026-04-22 22:39 6.85703 158.52910 13446 ft 355 kts 283°
2026-04-22 22:39 6.86285 158.50530 13273 ft 346 kts 283°
2026-04-22 22:40 6.86853 158.48209 13117 ft 337 kts 283°
2026-04-22 22:40 6.87401 158.45964 12902 ft 324 kts 283°
2026-04-22 22:40 6.87930 158.43795 12556 ft 316 kts 283°
2026-04-22 22:40 6.88449 158.41667 12383 ft 309 kts 283°
2026-04-22 22:41 6.88953 158.39601 12221 ft 300 kts 283°
2026-04-22 22:41 6.89450 158.37564 11883 ft 300 kts 283°
2026-04-22 22:41 6.89945 158.35532 11553 ft 299 kts 283°
2026-04-22 22:41 6.90440 158.33503 11223 ft 298 kts 283°
2026-04-22 22:42 6.90932 158.31487 10950 ft 296 kts 284°
2026-04-22 22:42 6.91421 158.29478 10612 ft 296 kts 284°
2026-04-22 22:42 6.91910 158.27473 10312 ft 294 kts 284°
2026-04-22 22:42 6.92395 158.25481 10046 ft 292 kts 284°
2026-04-22 22:43 6.92879 158.23498 9743 ft 291 kts 284°
2026-04-22 22:43 6.93359 158.21525 9430 ft 289 kts 284°
2026-04-22 22:43 6.93837 158.19559 9103 ft 289 kts 284°
2026-04-22 22:43 6.94315 158.17601 8761 ft 288 kts 284°
2026-04-22 22:44 6.94789 158.15654 8462 ft 286 kts 284°
2026-04-22 22:44 6.95261 158.13714 8181 ft 285 kts 284°
2026-04-22 22:44 6.95729 158.11788 8013 ft 282 kts 284°
2026-04-22 22:44 6.96195 158.09871 7782 ft 281 kts 284°
2026-04-22 22:45 6.96656 158.07979 7666 ft 274 kts 284°
2026-04-22 22:45 6.97095 158.06172 7559 ft 264 kts 284°
2026-04-22 22:45 6.97523 158.04411 7456 ft 255 kts 284°
2026-04-22 22:45 6.97943 158.02687 7344 ft 246 kts 284°
2026-04-22 22:46 6.98344 158.01042 7078 ft 245 kts 284°
2026-04-22 22:46 6.98646 157.99361 6809 ft 244 kts 273°
2026-04-22 22:46 6.98665 157.97660 6546 ft 243 kts 269°
2026-04-22 22:46 6.98630 157.95966 6242 ft 242 kts 269°
2026-04-22 22:47 6.98591 157.94277 5976 ft 240 kts 269°
2026-04-22 22:47 6.98219 157.92678 5761 ft 232 kts 234°
2026-04-22 22:47 6.97011 157.91786 5691 ft 209 kts 188°
2026-04-22 22:47 6.95691 157.92022 5528 ft 189 kts 141°
2026-04-22 22:48 6.94766 157.92946 5237 ft 189 kts 122°
2026-04-22 22:48 6.94304 157.94164 4976 ft 187 kts 92°
2026-04-22 22:48 6.94510 157.95437 4771 ft 186 kts 71°
2026-04-22 22:48 6.94886 157.96684 4591 ft 187 kts 73°
2026-04-22 22:49 6.95194 157.97778 4249 ft 193 kts 73°
2026-04-22 22:49 6.95546 157.99077 4004 ft 190 kts 75°
2026-04-22 22:49 6.95861 158.00345 3826 ft 184 kts 74°
2026-04-22 22:49 6.96201 158.01594 3533 ft 185 kts 74°
2026-04-22 22:50 6.96539 158.02813 3311 ft 181 kts 73°
2026-04-22 22:50 6.96902 158.04058 2821 ft 190 kts 72°
2026-04-22 22:50 6.97256 158.05315 2648 ft 181 kts 75°
2026-04-22 22:50 6.97542 158.06494 2476 ft 169 kts 75°
2026-04-22 22:51 6.97823 158.07630 2188 ft 165 kts 75°
2026-04-22 22:51 6.98122 158.08750 1923 ft 172 kts 75°
2026-04-22 22:51 6.98368 158.09957 1854 ft 179 kts 80°
2026-04-22 22:51 6.98521 158.11203 1854 ft 180 kts 85°
2026-04-22 22:52 6.98560 158.12467 1758 ft 181 kts 89°
2026-04-22 22:52 6.98565 158.13722 1572 ft 177 kts 91°
2026-04-22 22:52 6.98540 158.14929 1349 ft 168 kts 91°
2026-04-22 22:52 6.98536 158.16092 1030 ft 164 kts 89°
2026-04-22 22:53 6.98544 158.17212 717 ft 156 kts 92°
2026-04-22 22:53 6.98526 158.18264 450 ft 147 kts 91°
2026-04-22 22:53 6.98524 158.19277 195 ft 145 kts 92°
2026-04-22 22:53 6.98514 158.20275 25 ft 138 kts 90°
2026-04-22 22:54 6.98511 158.21027 21 ft 73 kts 90°
2026-04-22 22:54 6.98509 158.21387 20 ft 45 kts 90°
2026-04-22 22:54 6.98507 158.21702 20 ft 43 kts 91°
2026-04-22 22:54 6.98476 158.21850 20 ft 10 kts 49°
2026-04-22 22:55 6.98511 158.21826 19 ft 9 kts 270°
2026-04-22 22:55 6.98509 158.21713 20 ft 25 kts 269°
2026-04-22 22:55 6.98510 158.21202 20 ft 38 kts 270°
2026-04-22 22:56 6.98510 158.20936 20 ft 39 kts 270°
2026-04-22 22:56 6.98511 158.20661 20 ft 40 kts 270°
2026-04-22 22:56 6.98512 158.20433 20 ft 26 kts 270°
2026-04-22 22:56 6.98466 158.20361 20 ft 12 kts 193°
2026-04-22 22:57 6.98373 158.20358 20 ft 14 kts 180°
2026-04-22 22:57 6.98281 158.20368 21 ft 9 kts 147°
2026-04-22 22:57 6.98245 158.20392 20 ft 6 kts 162°
2026-04-22 22:57 6.98207 158.20395 20 ft 5 kts 179°
2026-04-22 22:58 6.98195 158.20395 20 ft 0 kts 179°